sat.trackr.live / text

‹ back to catalog

STARLINK-36296

NORAD 68380 · 2026-063A

PAYLOAD ACTIVE UNKNOWN

§ Identity

Operator
Country
US
Launch date
2026-03-26
Launch site
AFWTR
Launch vehicle
Mass (kg)
RCS (m²)

Purposes: comms

External: N2YO · Heavens-Above · Gunter

§ Orbital elements

Epoch: 2026-05-25T03:17:36.964032Z

Period
91.20 min
Inclination
97.2854°
Eccentricity
0.0001742
Mean motion
15.79018075 rev/d
Perigee alt
332.1 km
Apogee alt
334.4 km
Semi-major
6,711.4 km
B*
1.6983e-3
RAAN
288.9729°
Arg perigee
314.4414°
Mean anomaly
45.6710°
Rev number
969

§ Raw data

STARLINK-362961 68380U 26063A   26145.13723338  .00310742  00000+0  16983-2 0  99952 68380  97.2854 288.9729 0001742 314.4414  45.6710 15.79018075  9692

JSON: /api/v1/satellites/68380 · /tle

For live sub-satellite position, see the globe view (requires WebGL).

§ Visibility from observer

Set your observer location to see the next 7 days of passes ≥ 10°. The values pass through the URL so the page stays shareable.

No JS? Fill the form by hand. The geolocation button needs JavaScript.